Location: Bonny Doon Airfield
(37.0704°N, 122.1252°W)
Time: 04:43:12
(UTC-07:00)

Tiangong 1 - Pass Details

Date: 09 October 2017
Orbit: 292 x 319 km, 42.8° (Epoch: 22 October)

Event Time Altitude Azimuth Distance (km) Brightness Sun altitude
Rises 19:09:36 0° 276° (W) 2,043 7.0 -6.8°
Reaches altitude 10° 19:11:46 10° 290° (WNW) 1,208 4.9 -7.2°
Maximum altitude 19:14:07 26° 351° (N) 659 2.3 -7.7°
Drops below altitude 10° 19:16:27 10° 52° (NE) 1,194 3.1 -8.2°
Enters shadow 19:16:43 - 54° (NE) 1,289 3.2 -8.2°
